This demonstration page uses our WeatherBlox Daily Observations layout. Learn more.

Left ArrowRight Arrow

Hourly Observations for February 24, 2016

Temp ( °F °C ) Dew Point ( °F °C ) Humidity (%) Winds ( mph kmh ) Pressure ( in mb ) Visibility ( mi km ) Precip ( " mm )
12:58 am 00:58 Clear 31 -0.6 26 -3.3 82 82 NNW 8 13 30.07 1018 10 16 0.00 0.00
1:58 am 01:58 Clear 31 -0.5 26 -3.3 82 82 NNW 9 15 30.06 1018 10 16 0.00 0.00
2:58 am 02:58 Mostly Cloudy 32 0 27 -3 80 80 NNW 8 13 30.05 1018 10 16 0.00 0.00
2:59 am 02:59 Mostly Cloudy 32 0 27 -3 80 80 NNW 8 13 30.09 1019 10 16 0.00 0.00
3:58 am 03:58 Cloudy 32 -0.1 26 -3.1 80 80 NW 8 13 30.04 1017 10 16 0.00 0.00
4:51 am 04:51 Cloudy 30 -1 27 -3 86 86 WNW 9 15 30.09 1019 10 16 0.00 0.00
4:58 am 04:58 Cloudy 30 -1 27 -2.6 89 89 NW 8 13 30.05 1018 10 16 0.00 0.00
5:58 am 05:58 Cloudy 32 -0.2 27 -2.7 83 83 NW 10 17 30.06 1018 10 16 0.00 0.00
6:58 am 06:58 Cloudy 31 -0.8 27 -2.8 86 86 WNW 8 13 30.06 1018 10 16 0.00 0.00
7:58 am 07:58 Cloudy 31 -0.7 27 -2.9 85 85 NW 7 11 30.07 1018 10 16 0.00 0.00
8:33 am 08:33 Cloudy 32 0 27 -3 80 80 WNW 10 17 30.09 1019 10 16 0.00 0.00
8:58 am 08:58 Cloudy 32 0.1 27 -2.8 81 81 WNW 13 20 30.06 1018 10 16 0.00 0.00
9:20 am 09:20 Cloudy 34 1 27 -3 75 75 N 14 22 30.09 1019 10 16 0.00 0.00
9:36 am 09:36 Cloudy 34 1 25 -4 70 70 N 10 17 30.09 1019 10 16 0.00 0.00
9:51 am 09:51 Cloudy 36 2 27 -3 70 70 NW 14 22 30.06 1018 10 16 0.00 0.00
9:56 am 09:56 Cloudy 36 2 27 -3 70 70 NW 16 26 30.06 1018 10 16 0.00 0.00
9:58 am 09:58 Cloudy 36 2 27 -3 70 70 NNW 15 24 30.07 1018 10 16 0.00 0.00
10:06 am 10:06 Cloudy 36 2 25 -4 65 65 NNW 15 24 30.06 1018 10 16 0.00 0.00
10:26 am 10:26 Mostly Cloudy 36 2 27 -3 70 70 NNW 15 24 30.06 1018 10 16 0.00 0.00
10:58 am 10:58 Mostly Cloudy 38 3.2 27 -2.9 65 65 NNW 16 26 30.06 1018 10 16 0.00 0.00
10:59 am 10:59 Partly Cloudy 37 3 27 -3 65 65 NNW 15 24 30.06 1018 10 16 0.00 0.00
11:09 am 11:09 Mostly Sunny 37 3 27 -3 65 65 N 16 26 30.03 1017 10 16 0.00 0.00
11:58 am 11:58 Mostly Sunny 39 3.8 27 -2.9 62 62 N 10 17 30.03 1017 10 16 0.00 0.00
12:58 pm 12:58 Sunny 41 5.2 27 -2.6 57 57 NNW 9 15 30.01 1016 10 16 0.00 0.00
1:58 pm 13:58 Mostly Cloudy 41 5.2 26 -3.6 53 53 NNW 16 26 30.01 1016 10 16 0.00 0.00
2:58 pm 14:58 Partly Cloudy 42 5.7 25 -3.8 51 51 NNW 14 22 30.01 1016 10 16 0.00 0.00
3:58 pm 15:58 Mostly Cloudy 42 5.3 26 -3.6 53 53 N 14 22 30.03 1017 10 16 0.00 0.00
4:58 pm 16:58 Partly Cloudy 40 4.7 26 -3.6 55 55 N 17 28 30.05 1018 10 16 0.00 0.00
5:58 pm 17:58 Sunny 35 1.8 25 -4 66 66 N 12 19 30.07 1018 10 16 0.00 0.00
6:58 pm 18:58 Mostly Cloudy 34 1.2 25 -4 69 69 NNW 9 15 30.08 1019 10 16 0.00 0.00
7:03 pm 19:03 Mostly Cloudy with Light Snow 36 2 25 -4 65 65 NNW 7 11 30.06 1018 10 16 0.00 0.00
7:19 pm 19:19 Cloudy 36 2 25 -4 65 65 N 6 9 30.06 1018 10 16 0.00 0.00
7:58 pm 19:58 Cloudy 33 0.8 25 -3.7 72 72 NW 6 9 30.08 1019 10 16 0.00 0.03
8:58 pm 20:58 Cloudy 34 1.3 27 -3 73 73 WNW 10 17 30.09 1019 10 16 0.00 0.00
9:16 pm 21:16 Cloudy with Light Snow 36 2 28 -2 75 75 NW 13 20 30.09 1019 10 16 0.00 0.00
9:58 pm 21:58 Cloudy with Light Snow 34 0.9 31 -0.5 90 90 NW 9 15 30.09 1019 6 10 0.00 0.03
10:33 pm 22:33 Cloudy with Light Snow 32 0 32 0 100 100 WNW 8 13 30.12 1020 7 11 0.00 0.00
10:58 pm 22:58 Cloudy with Light Snow 33 0.6 33 0.5 99 99 WNW 9 15 30.10 1019 10 16 0.00 0.03
11:17 pm 23:17 Cloudy with Light Rain/Snow 32 0 32 0 100 100 WNW 8 13 30.12 1020 10 16 0.00 0.00
11:36 pm 23:36 Cloudy with Light Snow 32 0 32 0 100 100 NW 8 13 30.12 1020 8 13 0.00 0.00
11:58 pm 23:58 Cloudy with Light Snow 33 0.6 33 0.5 99 99 NW 6 9 30.11 1020 6 10 0.00 0.03

Powered by AerisWeather